Maugansville, MD

5:24 AM EDT on September 28, 2016 (GMT -0400)
Hagerstown Regional-Henson

Weather History for KHGR - January, 2015

Change the Weather History Date:

Monday, January 12, 2015

  Actual Average Record
Temperature  
Mean Temperature 36 °F 30 °F  
Max Temperature 39 °F 38 °F 59 °F (2006)
Min Temperature 32 °F 23 °F 12 °F (1997)
Degree Days  
Heating Degree Days 29 35  
Month to date heating degree days 448 413  
Since 1 July heating degree days 2224 2377  
Cooling Degree Days 0 0  
Month to date cooling degree days 0 0  
Year to date cooling degree days 0 0  
Moisture  
Dew Point 31 °F    
Average Humidity 81    
Maximum Humidity 92    
Minimum Humidity 69    
Precipitation  
Precipitation 0.42 in 0.10 in 0.42 in (2015)
Month to date precipitation 1.06 1.09  
Year to date precipitation 1.06 1.09  
Sea Level Pressure  
Sea Level Pressure 30.25 in    
Wind  
Wind Speed 5 mph (NNW)    
Max Wind Speed 20 mph    
Max Gust Speed 24 mph    
Visibility 4 miles    
Events Rain    
T = Trace of Precipitation, MM = Missing Value Source: NWS Daily Summary

Daily Weather History Graph

Daily Weather History Graph

Search for Another Location

Airport or City:

Trip Planner

Search our weather history database for the weather conditions in past years. The results will help you decide how hot, cold, wet, or windy it might be!

Date:

Astronomy

Jan. 12, 2015 Rise Set
Actual Time 7:31 AM EST 5:07 PM EST
Civil Twilight 7:01 AM EST 5:37 PM EST
Nautical Twilight 6:28 AM EST 6:10 PM EST
Astronomical Twilight 5:55 AM EST 6:43 PM EST
Moon No Moon Rise 11:16 AM EST (1/12)
Length of Visible Light 10h 35m
Length of Day
9h 36m
Waning Gibbous, 57% of the Moon is Illuminated
Jan 12
Waning Gibbous
Jan 13
Last Quarter
Jan 20
New
Jan 26
First Quarter
Feb 3
Full

Hourly Weather History & Observations

Time (EST) Temp. Windchill Dew Point Humidity Pressure Visibility Wind Dir Wind Speed Gust Speed Precip Events Conditions
12:53 AM 32.0 °F 28.7 °F 26.1 °F 79% 30.49 in 6.0 mi South 3.5 mph - 0.03 in   Overcast
1:53 AM 32.0 °F - 28.0 °F 85% 30.49 in 5.0 mi Calm Calm - 0.03 in   Overcast
2:08 AM 32.0 °F 27.5 °F 28.0 °F 85% 30.42 in 6.0 mi ESE 4.6 mph - 0.02 in Rain Light Freezing Rain
2:53 AM 33.1 °F 30.0 °F 28.9 °F 85% 30.45 in 5.0 mi SE 3.5 mph - 0.05 in Rain Light Freezing Rain
3:53 AM 33.1 °F 28.7 °F 30.0 °F 89% 30.42 in 7.0 mi SSE 4.6 mph - 0.01 in Rain Light Freezing Rain
4:53 AM 34.0 °F - 28.9 °F 82% 30.38 in 8.0 mi Calm Calm - 0.01 in Rain Light Freezing Rain
5:04 AM 34.0 °F - 28.9 °F 82% 30.32 in 9.0 mi Calm Calm - 0.00 in   Overcast
5:25 AM 33.1 °F - 28.9 °F 85% 30.31 in 8.0 mi Calm Calm - 0.00 in Rain Light Freezing Rain
5:44 AM 34.0 °F - 30.0 °F 85% 30.31 in 9.0 mi Calm Calm - 0.00 in   Overcast
5:53 AM 34.0 °F - 30.0 °F 85% 30.36 in 7.0 mi Calm Calm - 0.00 in Rain Light Freezing Rain
6:15 AM 33.1 °F - 30.9 °F 92% 30.31 in 2.5 mi Calm Calm - 0.02 in Rain Light Freezing Rain
6:23 AM 33.1 °F - 30.0 °F 89% 30.31 in 3.0 mi Calm Calm - 0.03 in Rain Light Freezing Rain
6:32 AM 33.1 °F 28.7 °F 30.0 °F 89% 30.31 in 4.0 mi South 4.6 mph - 0.04 in Rain Light Rain
6:53 AM 33.1 °F 27.7 °F 28.9 °F 85% 30.35 in 5.0 mi South 5.8 mph - 0.05 in Rain Light Rain
7:30 AM 33.1 °F 26.1 °F 30.0 °F 89% 30.29 in 2.5 mi SSE 8.1 mph - 0.03 in Rain Light Rain
7:53 AM 33.1 °F 27.7 °F 30.0 °F 89% 30.32 in 2.5 mi SSE 5.8 mph - 0.05 in Rain Light Rain
8:00 AM 33.1 °F 27.7 °F 30.0 °F 89% 30.27 in 4.0 mi SSE 5.8 mph - 0.00 in Rain Light Rain
8:14 AM 33.1 °F 26.9 °F 30.9 °F 92% 30.26 in 3.0 mi SSE 6.9 mph - 0.01 in Rain Light Rain
8:36 AM 33.1 °F 30.0 °F 30.9 °F 92% 30.26 in 2.5 mi South 3.5 mph - 0.01 in Rain Light Rain
8:53 AM 34.0 °F - 30.0 °F 85% 30.32 in 2.5 mi Calm Calm - 0.02 in Rain Light Rain
9:00 AM 34.0 °F 31.0 °F 30.9 °F 89% 30.27 in 3.0 mi SW 3.5 mph - 0.00 in Rain Light Rain
9:11 AM 34.0 °F 31.0 °F 30.9 °F 89% 30.26 in 2.0 mi WSW 3.5 mph - 0.01 in Rain Light Rain
9:21 AM 34.0 °F - 30.9 °F 89% 30.25 in 1.8 mi Calm Calm - 0.03 in Rain Light Rain
9:28 AM 33.1 °F - 30.9 °F 92% 30.26 in 2.0 mi Calm Calm - 0.03 in Rain Light Rain
9:37 AM 33.1 °F - 30.9 °F 92% 30.26 in 1.5 mi Calm Calm - 0.04 in Rain Light Rain
9:53 AM 33.1 °F - 30.9 °F 92% 30.30 in 1.0 mi Calm Calm - 0.06 in Rain Light Rain
10:24 AM 33.1 °F - 30.9 °F 92% 30.24 in 1.0 mi Calm Calm - 0.03 in Rain Light Rain
10:33 AM 33.1 °F 30.0 °F 30.9 °F 92% 30.24 in 0.8 mi WNW 3.5 mph - 0.04 in Rain Light Rain
10:53 AM 33.1 °F 28.7 °F 30.9 °F 92% 30.28 in 0.8 mi NNW 4.6 mph - 0.07 in Rain Light Rain
11:08 AM 33.1 °F 28.7 °F 30.9 °F 92% 30.22 in 1.0 mi North 4.6 mph - 0.02 in Rain Light Rain
11:53 AM 34.0 °F 28.8 °F 30.9 °F 89% 30.24 in 1.2 mi NNW 5.8 mph - 0.04 in   Overcast
12:11 PM 34.0 °F 31.0 °F 32.0 °F 92% 30.18 in 1.5 mi NNW 3.5 mph - 0.00 in   Overcast
12:42 PM 35.1 °F 32.2 °F 32.0 °F 89% 30.16 in 1.0 mi ENE 3.5 mph - 0.00 in   Overcast
12:53 PM 35.1 °F 31.0 °F 32.0 °F 89% 30.20 in 1.0 mi East 4.6 mph - 0.00 in   Overcast
12:59 PM 35.1 °F 32.2 °F 32.0 °F 89% 30.15 in 2.0 mi East 3.5 mph - N/A   Overcast
1:21 PM 35.1 °F 31.0 °F 32.0 °F 89% 30.14 in 3.0 mi SE 4.6 mph - N/A   Overcast
1:35 PM 35.1 °F - 33.1 °F 92% 30.14 in 2.5 mi Calm Calm - N/A   Overcast
1:53 PM 36.0 °F - 33.1 °F 89% 30.17 in 2.5 mi Calm Calm - N/A   Overcast
2:03 PM 36.0 °F - 33.1 °F 89% 30.12 in 3.0 mi Calm Calm - N/A   Overcast
2:34 PM 35.1 °F - 33.1 °F 92% 30.12 in 1.5 mi Calm Calm - N/A   Overcast
2:53 PM 37.0 °F - 34.0 °F 89% 30.18 in 1.5 mi Calm Calm - N/A   Overcast
3:00 PM 37.0 °F - 34.0 °F 89% 30.12 in 2.0 mi Calm Calm - N/A   Overcast
3:43 PM 36.0 °F 33.3 °F 33.1 °F 89% 30.14 in 1.5 mi WNW 3.5 mph - N/A   Overcast
3:53 PM 36.0 °F 32.1 °F 33.1 °F 89% 30.19 in 1.5 mi NW 4.6 mph - N/A   Overcast
4:31 PM 36.0 °F 33.3 °F 34.0 °F 93% 30.14 in 1.5 mi NNW 3.5 mph - 0.00 in   Overcast
4:53 PM 36.0 °F 31.1 °F 33.1 °F 89% 30.20 in 1.2 mi NNW 5.8 mph - 0.00 in   Overcast
5:12 PM 36.0 °F 32.1 °F 34.0 °F 93% 30.14 in 2.0 mi North 4.6 mph - N/A   Overcast
5:53 PM 36.0 °F - 34.0 °F 93% 30.19 in 2.5 mi Calm Calm - 0.00 in   Overcast
6:16 PM 35.1 °F 30.1 °F 33.1 °F 92% 30.15 in 1.5 mi NW 5.8 mph - 0.00 in   Overcast
6:38 PM 35.1 °F 29.3 °F 33.1 °F 92% 30.16 in 1.5 mi NNW 6.9 mph - 0.00 in   Overcast
6:53 PM 35.1 °F 31.0 °F 33.1 °F 92% 30.22 in 1.8 mi NNW 4.6 mph - 0.00 in   Overcast
7:33 PM 36.0 °F 31.1 °F 33.1 °F 89% 30.17 in 2.5 mi NNW 5.8 mph - N/A   Overcast
7:41 PM 36.0 °F 30.3 °F 33.1 °F 89% 30.18 in 3.0 mi NW 6.9 mph - N/A   Overcast
7:53 PM 37.0 °F 32.4 °F 34.0 °F 89% 30.23 in 4.0 mi NNW 5.8 mph - N/A   Overcast
8:53 PM 37.9 °F 31.5 °F 33.1 °F 83% 30.26 in 10.0 mi NNW 9.2 mph - N/A   Overcast
9:19 PM 37.9 °F 32.7 °F 33.1 °F 83% 30.20 in 10.0 mi NNW 6.9 mph - N/A   Overcast
9:53 PM 37.9 °F 31.5 °F 30.9 °F 76% 30.27 in 10.0 mi North 9.2 mph - N/A   Overcast
10:38 PM 37.9 °F 30.0 °F 28.9 °F 70% 30.24 in 10.0 mi NNW 12.7 mph - N/A   Scattered Clouds
10:53 PM 37.0 °F 28.5 °F 28.9 °F 73% 30.30 in 10.0 mi NNW 13.8 mph - N/A   Mostly Cloudy
11:29 PM 37.0 °F 31.0 °F 28.0 °F 70% 30.26 in 10.0 mi North 8.1 mph - N/A   Overcast
11:53 PM 36.0 °F 25.6 °F 27.0 °F 70% 30.32 in 10.0 mi NNW 18.4 mph - N/A   Overcast